HFM380 EDDC-LPBJ

Flight info

Callsign HFM380
Flight time N/A
Altitude 40000
Route ABKIS4E/04 ABKIS Z715 NOKSI DCT OKG N869 NATOR DCT TUFTA DCT BUSIL DCT TIS DCT SECHE DCT URUNA P181 NEA L14 ADINO DCT INLED
Aircraft A388/J-SADE2E3FGHIJ3J4J5M1RWXYZ/LB1D1

Departure

Time N/A
Airport Dresden Airport (EDDC)

Arrival

Time 2026-04-15 17:32
Airport Beja Airport / Airbase (LPBJ)
Time Latitude Longitude Altitude Speed Heading
2026-04-15 16:24 43.76874 -0.89942 40209 ft 458 kts 240°
2026-04-15 16:24 43.73320 -0.97260 40214 ft 458 kts 240°
2026-04-15 16:25 43.69758 -1.04576 40211 ft 458 kts 240°
2026-04-15 16:25 43.66190 -1.11885 40214 ft 458 kts 240°
2026-04-15 16:26 43.62617 -1.19188 40208 ft 459 kts 240°
2026-04-15 16:26 43.59036 -1.26487 40207 ft 459 kts 240°
2026-04-15 16:27 43.55452 -1.33775 40225 ft 459 kts 240°
2026-04-15 16:27 43.51860 -1.41061 40237 ft 460 kts 240°
2026-04-15 16:28 43.48282 -1.48301 40227 ft 460 kts 240°
2026-04-15 16:28 43.44671 -1.55590 40229 ft 461 kts 240°
2026-04-15 16:29 43.41056 -1.62868 40247 ft 461 kts 240°
2026-04-15 16:29 43.37429 -1.70155 40245 ft 462 kts 240°
2026-04-15 16:30 43.33813 -1.77442 40244 ft 462 kts 241°
2026-04-15 16:30 43.30180 -1.84754 40243 ft 464 kts 238°
2026-04-15 16:31 43.26284 -1.91812 40236 ft 464 kts 238°
2026-04-15 16:31 43.22381 -1.98881 40236 ft 465 kts 238°
2026-04-15 16:32 43.18471 -2.05945 40230 ft 465 kts 238°
2026-04-15 16:32 43.14551 -2.13008 40222 ft 465 kts 238°
2026-04-15 16:33 43.10630 -2.20059 40216 ft 465 kts 238°
2026-04-15 16:33 43.06734 -2.27048 40216 ft 466 kts 238°
2026-04-15 16:34 43.02794 -2.34097 40218 ft 466 kts 238°
2026-04-15 16:34 42.98856 -2.41130 40216 ft 466 kts 238°
2026-04-15 16:35 42.94906 -2.48166 40209 ft 466 kts 238°
2026-04-15 16:35 42.90960 -2.55177 40211 ft 466 kts 238°
2026-04-15 16:36 42.87004 -2.62190 40206 ft 466 kts 237°
2026-04-15 16:36 42.83066 -2.69155 40209 ft 467 kts 237°
2026-04-15 16:37 42.79093 -2.76163 40207 ft 467 kts 237°
2026-04-15 16:37 42.75114 -2.83168 40213 ft 468 kts 237°
2026-04-15 16:38 42.71137 -2.90192 40207 ft 468 kts 238°
2026-04-15 16:38 42.67223 -2.97258 40207 ft 468 kts 238°
2026-04-15 16:39 42.63325 -3.04278 40202 ft 469 kts 238°
2026-04-15 16:39 42.59388 -3.11329 40199 ft 469 kts 238°
2026-04-15 16:40 42.55437 -3.18385 40199 ft 469 kts 238°
2026-04-15 16:40 42.51482 -3.25431 40199 ft 469 kts 238°
2026-04-15 16:41 42.47524 -3.32468 40201 ft 469 kts 238°
2026-04-15 16:41 42.43557 -3.39502 40204 ft 470 kts 238°
2026-04-15 16:42 42.39584 -3.46531 40208 ft 470 kts 238°
2026-04-15 16:42 42.35628 -3.53513 40208 ft 470 kts 238°
2026-04-15 16:43 42.31632 -3.60553 40196 ft 472 kts 238°
2026-04-15 16:43 42.27644 -3.67556 40219 ft 470 kts 238°
2026-04-15 16:44 42.23641 -3.74573 40216 ft 472 kts 238°
2026-04-15 16:44 42.19632 -3.81584 40203 ft 471 kts 238°
2026-04-15 16:45 42.15612 -3.88595 40198 ft 472 kts 237°
2026-04-15 16:45 42.11620 -3.95543 40197 ft 472 kts 237°
2026-04-15 16:46 42.07593 -4.02537 40193 ft 472 kts 237°
2026-04-15 16:46 42.03483 -4.09447 40199 ft 475 kts 233°
2026-04-15 16:47 41.98726 -4.15699 40194 ft 481 kts 226°
2026-04-15 16:47 41.93670 -4.21568 40198 ft 481 kts 226°
2026-04-15 16:48 41.88621 -4.27471 40196 ft 481 kts 226°
2026-04-15 16:48 41.83596 -4.33339 40206 ft 482 kts 226°
2026-04-15 16:49 41.78529 -4.39239 40210 ft 483 kts 226°
2026-04-15 16:49 41.73451 -4.45138 40216 ft 483 kts 226°
2026-04-15 16:50 41.68365 -4.51034 40216 ft 483 kts 226°
2026-04-15 16:50 41.63274 -4.56924 40215 ft 484 kts 226°
2026-04-15 16:51 41.58181 -4.62803 40215 ft 484 kts 226°
2026-04-15 16:51 41.53086 -4.68671 40218 ft 484 kts 226°
2026-04-15 16:52 41.48014 -4.74501 40217 ft 484 kts 226°
2026-04-15 16:52 41.42914 -4.80349 40216 ft 484 kts 226°
2026-04-15 16:53 41.37804 -4.86197 40218 ft 484 kts 226°
2026-04-15 16:53 41.32687 -4.92040 40217 ft 484 kts 226°
2026-04-15 16:54 41.27567 -4.97876 40220 ft 484 kts 225°
2026-04-15 16:54 41.22443 -5.03696 40214 ft 485 kts 225°
2026-04-15 16:55 41.17311 -5.09516 40214 ft 485 kts 225°
2026-04-15 16:55 41.12171 -5.15331 40218 ft 485 kts 225°
2026-04-15 16:56 41.07068 -5.21092 40229 ft 486 kts 225°
2026-04-15 16:56 41.01911 -5.26902 40227 ft 486 kts 225°
2026-04-15 16:57 40.96752 -5.32702 40233 ft 487 kts 225°
2026-04-15 16:57 40.91589 -5.38494 40237 ft 487 kts 225°
2026-04-15 16:58 40.86413 -5.44288 40232 ft 487 kts 225°
2026-04-15 16:58 40.81242 -5.50065 40232 ft 487 kts 225°
2026-04-15 16:59 40.76063 -5.55839 40227 ft 487 kts 225°
2026-04-15 16:59 40.70915 -5.61564 40217 ft 487 kts 225°
2026-04-15 17:00 40.65731 -5.67319 40208 ft 488 kts 225°
2026-04-15 17:00 40.60536 -5.73073 40202 ft 488 kts 225°
2026-04-15 17:01 40.55337 -5.78820 40199 ft 488 kts 225°
2026-04-15 17:01 40.50148 -5.84543 40210 ft 481 kts 225°
2026-04-15 17:02 40.44981 -5.90237 40206 ft 489 kts 224°
2026-04-15 17:02 40.39762 -5.95972 40199 ft 488 kts 224°
2026-04-15 17:03 40.34540 -6.01698 40182 ft 489 kts 225°
2026-04-15 17:03 40.29322 -6.07407 40177 ft 488 kts 224°
2026-04-15 17:04 40.24135 -6.13072 40174 ft 489 kts 224°
2026-04-15 17:04 40.18899 -6.18778 40172 ft 489 kts 224°
2026-04-15 17:05 40.13657 -6.24478 40170 ft 489 kts 224°
2026-04-15 17:05 40.08433 -6.30147 40179 ft 487 kts 224°
2026-04-15 17:06 40.03245 -6.35765 40172 ft 487 kts 224°
2026-04-15 17:06 39.97829 -6.41126 40171 ft 489 kts 220°
2026-04-15 17:07 39.92318 -6.46355 40168 ft 488 kts 220°
2026-04-15 17:07 39.86837 -6.51563 40169 ft 487 kts 220°
2026-04-15 17:08 39.81363 -6.56751 40154 ft 486 kts 220°
2026-04-15 17:08 39.78637 -6.59330 39806 ft 484 kts 220°
2026-04-15 17:08 39.75910 -6.61909 39091 ft 486 kts 220°
2026-04-15 17:08 39.74096 -6.63623 38447 ft 488 kts 220°
2026-04-15 17:09 39.71333 -6.66234 37298 ft 494 kts 220°
2026-04-15 17:09 39.68538 -6.68872 36153 ft 499 kts 220°
2026-04-15 17:09 39.65719 -6.71527 35089 ft 502 kts 220°
2026-04-15 17:09 39.62880 -6.74195 34074 ft 503 kts 219°
2026-04-15 17:10 39.59150 -6.77696 32850 ft 495 kts 219°
2026-04-15 17:10 39.57276 -6.79451 32546 ft 487 kts 219°
2026-04-15 17:10 39.54560 -6.81992 32034 ft 478 kts 220°
2026-04-15 17:10 39.51874 -6.84509 31344 ft 473 kts 220°
2026-04-15 17:11 39.49225 -6.86990 30706 ft 469 kts 220°
2026-04-15 17:11 39.46591 -6.89455 30015 ft 465 kts 220°
2026-04-15 17:11 39.43985 -6.91891 29346 ft 459 kts 219°
2026-04-15 17:12 39.38907 -6.96627 28071 ft 448 kts 219°
2026-04-15 17:12 39.36393 -6.98970 27441 ft 443 kts 219°
2026-04-15 17:12 39.33906 -7.01285 26822 ft 438 kts 219°
2026-04-15 17:12 39.31444 -7.03575 26192 ft 434 kts 219°
2026-04-15 17:13 39.29003 -7.05844 25575 ft 430 kts 219°
2026-04-15 17:13 39.26583 -7.08091 24952 ft 427 kts 219°
2026-04-15 17:13 39.24180 -7.10321 24347 ft 424 kts 219°
2026-04-15 17:13 39.21781 -7.12545 23709 ft 422 kts 219°
2026-04-15 17:14 39.19406 -7.14744 23026 ft 418 kts 219°
2026-04-15 17:14 39.17060 -7.16914 22403 ft 414 kts 219°
2026-04-15 17:14 39.14731 -7.19066 21787 ft 409 kts 219°
2026-04-15 17:14 39.12426 -7.21197 21162 ft 405 kts 219°
2026-04-15 17:15 39.10146 -7.23301 20547 ft 402 kts 218°
2026-04-15 17:15 39.07880 -7.25392 19921 ft 399 kts 218°
2026-04-15 17:15 39.05632 -7.27463 19323 ft 396 kts 218°
2026-04-15 17:15 39.03402 -7.29517 18717 ft 393 kts 218°
2026-04-15 17:16 39.01183 -7.31559 18067 ft 391 kts 218°
2026-04-15 17:16 38.98982 -7.33582 17449 ft 386 kts 218°
2026-04-15 17:16 38.96812 -7.35574 16835 ft 382 kts 218°
2026-04-15 17:16 38.94664 -7.37546 16270 ft 378 kts 218°
2026-04-15 17:17 38.92534 -7.39499 15684 ft 374 kts 218°
2026-04-15 17:17 38.90428 -7.41430 15101 ft 371 kts 218°
2026-04-15 17:17 38.88337 -7.43345 14532 ft 368 kts 218°
2026-04-15 17:17 38.86262 -7.45245 13952 ft 365 kts 218°
2026-04-15 17:18 38.84202 -7.47129 13348 ft 362 kts 217°
2026-04-15 17:18 38.82161 -7.48993 12793 ft 357 kts 217°
2026-04-15 17:18 38.80177 -7.50804 12240 ft 353 kts 217°
2026-04-15 17:18 38.78190 -7.52618 11693 ft 349 kts 217°
2026-04-15 17:19 38.76220 -7.54413 11146 ft 345 kts 217°
2026-04-15 17:19 38.74270 -7.56190 10615 ft 342 kts 217°
2026-04-15 17:19 38.72368 -7.57920 10444 ft 327 kts 217°
2026-04-15 17:19 38.70552 -7.59572 10306 ft 313 kts 217°
2026-04-15 17:20 38.68815 -7.61153 10192 ft 300 kts 217°
2026-04-15 17:20 38.67134 -7.62680 9882 ft 294 kts 217°
2026-04-15 17:20 38.65481 -7.64184 9554 ft 289 kts 217°
2026-04-15 17:20 38.63852 -7.65665 9212 ft 285 kts 216°
2026-04-15 17:21 38.62248 -7.67121 8871 ft 281 kts 216°
2026-04-15 17:21 38.60659 -7.68563 8539 ft 278 kts 216°
2026-04-15 17:21 38.59097 -7.69980 8230 ft 274 kts 216°
2026-04-15 17:21 38.57547 -7.71384 7913 ft 272 kts 216°
2026-04-15 17:22 38.56011 -7.72775 7576 ft 270 kts 216°
2026-04-15 17:22 38.54486 -7.74155 7255 ft 267 kts 215°
2026-04-15 17:22 38.52969 -7.75526 6942 ft 266 kts 215°
2026-04-15 17:22 38.51464 -7.76885 6606 ft 264 kts 215°
2026-04-15 17:23 38.49970 -7.78235 6271 ft 262 kts 215°
2026-04-15 17:23 38.48505 -7.79556 5941 ft 260 kts 216°
2026-04-15 17:23 38.47033 -7.80884 5610 ft 259 kts 216°
2026-04-15 17:23 38.45560 -7.82213 5358 ft 255 kts 216°
2026-04-15 17:24 38.44136 -7.83498 5275 ft 245 kts 216°
2026-04-15 17:24 38.42773 -7.84725 5116 ft 234 kts 216°
2026-04-15 17:24 38.41486 -7.85883 5045 ft 219 kts 216°
2026-04-15 17:24 38.40231 -7.87016 4627 ft 222 kts 217°
2026-04-15 17:25 38.39045 -7.88082 4486 ft 198 kts 217°
2026-04-15 17:25 38.37901 -7.89120 4357 ft 208 kts 217°
2026-04-15 17:25 38.36692 -7.90215 4248 ft 216 kts 217°
2026-04-15 17:25 38.35303 -7.90954 4111 ft 223 kts 183°
2026-04-15 17:26 38.33760 -7.90723 3997 ft 223 kts 169°
2026-04-15 17:26 38.32236 -7.90389 3901 ft 222 kts 174°
2026-04-15 17:26 38.30698 -7.90301 3630 ft 221 kts 183°
2026-04-15 17:26 38.29165 -7.90427 3160 ft 219 kts 187°
2026-04-15 17:27 38.27688 -7.90626 2915 ft 209 kts 188°
2026-04-15 17:27 38.26252 -7.90813 2834 ft 211 kts 187°
2026-04-15 17:27 38.24766 -7.91012 2700 ft 214 kts 188°
2026-04-15 17:27 38.23348 -7.91192 2692 ft 194 kts 187°
2026-04-15 17:28 38.22070 -7.91362 2696 ft 178 kts 188°
2026-04-15 17:28 38.20880 -7.91524 2697 ft 162 kts 188°
2026-04-15 17:28 38.19819 -7.91662 2694 ft 152 kts 188°
2026-04-15 17:28 38.18764 -7.91807 2469 ft 151 kts 188°
2026-04-15 17:29 38.17709 -7.91942 2279 ft 157 kts 188°
2026-04-15 17:29 38.16627 -7.92090 2072 ft 154 kts 188°
2026-04-15 17:29 38.15573 -7.92229 1885 ft 151 kts 188°
2026-04-15 17:29 38.14523 -7.92372 1649 ft 153 kts 187°
2026-04-15 17:30 38.13473 -7.92473 1487 ft 149 kts 188°
2026-04-15 17:30 38.12434 -7.92625 1304 ft 151 kts 189°
2026-04-15 17:30 38.11397 -7.92763 1119 ft 151 kts 190°
2026-04-15 17:30 38.10339 -7.92905 854 ft 152 kts 189°
2026-04-15 17:31 38.09303 -7.93050 673 ft 146 kts 189°
2026-04-15 17:31 38.08400 -7.93183 638 ft 108 kts 187°
2026-04-15 17:31 38.07775 -7.93261 636 ft 76 kts 185°
2026-04-15 17:31 38.07322 -7.93315 631 ft 57 kts 185°
2026-04-15 17:32 38.06966 -7.93361 631 ft 46 kts 186°
2026-04-15 17:32 38.06669 -7.93397 636 ft 40 kts 186°
2026-04-15 17:32 38.06486 -7.93421 633 ft 10 kts 186°
2026-04-15 17:32 38.06421 -7.93430 634 ft 2 kts 186°
2026-04-15 17:33 38.06395 -7.93441 640 ft 6 kts 216°
2026-04-15 17:33 38.06369 -7.93500 642 ft 9 kts 262°
2026-04-15 17:33 38.06374 -7.93594 639 ft 12 kts 277°
2026-04-15 17:33 38.06386 -7.93688 640 ft 10 kts 292°
2026-04-15 17:34 38.06433 -7.93755 635 ft 11 kts 322°
2026-04-15 17:34 38.06467 -7.93789 637 ft 0 kts 321°
2026-04-15 17:35 38.06468 -7.93790 637 ft 1 kts 321°
2026-04-15 17:35 38.06488 -7.93810 643 ft 6 kts 321°
2026-04-15 17:35 38.06532 -7.93855 636 ft 10 kts 321°
2026-04-15 17:35 38.06575 -7.93898 640 ft 3 kts 322°
2026-04-15 17:36 38.06593 -7.93921 643 ft 3 kts 295°
2026-04-15 17:36 38.06595 -7.93941 640 ft 3 kts 249°
2026-04-15 17:36 38.06580 -7.93976 640 ft 5 kts 233°
2026-04-15 17:36 38.06569 -7.93994 643 ft 3 kts 232°
2026-04-15 17:37 38.06564 -7.94001 643 ft 0 kts 232°